Location: *
(51.0333°S, 178.4667°E)
Time: 00:14:45
(UTC+00:00)

Cosmos 1536 Rocket - Pass Details

Date: 15 November 2019
Orbit: 606 x 632 km, 82.5° (Epoch: 08 December)

Event Time Altitude Azimuth Distance (km) Brightness Sun altitude
Rises 10:44:38 0° 186° (S) 2,914 8.6 -19.0°
Reaches altitude 10° 10:46:58 10° 179° (S) 2,000 7.3 -19.1°
Maximum altitude 10:51:12 43° 106° (ESE) 880 4.3 -19.3°
Enters shadow 10:52:33 33° 63° (ENE) 1,047 4.4 -19.3°
